INTELSAT 39 (IS-39)

Last updated on Tue Jul 01 2025 00:02:48 GMT+0000 (Coordinated Universal Time)

1 44476U 19049B 25181.57872644 .00000034 00000+0 00000+0 0 9993 2 44476 0.0198 22.2945 0000756 304.3263 222.5525 1.00267074 21607
UTC large
Height (km)
Speed (km/s)
/
Latitude / Longitude
Inclination (degrees)
Orbital Period (minutes)
Azimuth
Elevation
Range (km)
Doppler Factor

Next 0 passes for location: London (51.5072 / 0.1276)

Sorry there are no passes over London.